Regional Weather Roundup
Issued by NWS Sioux Falls, SD

Home | Current Version | Previous Version | Text Only | Print | Product List | Glossary Off
Versions: 1 2 3 4 5 6 7 8 9 10 11 12 13 14 15 16 17 18 19 20 21 22 23 24 25 26 27 28 29 30 31 32 33 34 35 36 37 38 39 40 41 42 43 44 45 46 47 48 49 50

000
ASUS43 KFSD 221202
RWRFSD

WEATHER ROUNDUP FOR SE SOUTH DAKOTA/SW MINNESOTA/NW IOWA
NATIONAL WEATHER SERVICE SIOUX FALLS SD
700 AM CDT TUE APR 22 2014

NOTE: "FAIR" INDICATES FEW OR NO CLOUDS BELOW 12,000 FEET WITH NO
SIGNIFICANT WEATHER AND OR OBSTRUCTIONS TO VISIBILITY.


SDZ038>040-050-052>070-221300-
SOUTHEAST SOUTH DAKOTA

CITY           SKY/WX    TMP DP  RH WIND       PRES   REMARKS
CHAMBERLAIN      N/A     37  31  78 SE8       30.09F
6HR MIN TEMP:  37; 6HR MAX TEMP:  46;

HURON          CLEAR     34  29  82 SE5       30.13S WCI  30
6HR MIN TEMP:  32; 6HR MAX TEMP:  41;

MADISON        FAIR      32  32 100 SW3       30.14S
MITCHELL       CLEAR     32  29  88 E6        30.14S WCI  26
6HR MIN TEMP:  32; 6HR MAX TEMP:  45;

SIOUX FALLS    PTCLDY    29  26  89 CALM      30.15S
6HR MIN TEMP:  29; 6HR MAX TEMP:  38;

WINNER         FAIR      45  30  55 SE7       30.06F
YANKTON        CLEAR     36  28  75 CALM      30.17R
$$

MNZ071-072-080-081-089-090-097-098-221300-
SOUTHWEST MINNESOTA

CITY           SKY/WX    TMP DP  RH WIND       PRES   REMARKS
FAIRMONT       CLEAR     37  28  70 NW8       30.16R
JACKSON        CLEAR     36  28  75 CALM      30.15R
LUVERNE        CLEAR     32  27  80 CALM      30.16S
MARSHALL       CLEAR     32  25  74 W3        30.15R
6HR MIN TEMP:  32; 6HR MAX TEMP:  37;

MONTEVIDEO     CLEAR     36  30  80 W5        30.16R
PIPESTONE      CLEAR     34  27  75 CALM      30.14S
REDWOOD FALLS  CLEAR     34  29  82 W6        30.15R WCI  29
TRACY          CLEAR     35  29  78 CALM      30.15S
WINDOM         CLEAR     30  27  86 CALM      30.15S
WORTHINGTON    CLEAR     30  21  69 W5        30.17R WCI  25
$$

IAZ001>003-012>014-020>022-031-032-NEZ013-014-SDZ071-221300-
NORTHWEST IOWA

CITY           SKY/WX    TMP DP  RH WIND       PRES   REMARKS
CHEROKEE       CLEAR     30  26  83 CALM      30.16S
DENISON        CLEAR     34  32  93 CALM      30.15R
ESTHERVILLE    CLEAR     33  29  85 NW8       30.14S WCI  26
SHELDON        CLEAR     27  23  86 CALM      30.15S HAZE
SIOUX CITY     CLEAR     32  28  85 CALM      30.16S
6HR MIN TEMP:  32; 6HR MAX TEMP:  50;

SPENCER        CLEAR     30  26  85 W6        30.16R WCI  24
6HR MIN TEMP:  27; 6HR MAX TEMP:  43;

STORM LAKE     CLEAR     34  28  80 NW7       30.16R WCI  28
$$

ABBREVIATIONS USED IN REMARKS
   TC - TEMPERATURE IN CELSIUS
  WCI - WIND CHILL INDEX
   HX - HEAT INDEX
  VSB - VISIBILITY




USA.gov is the U.S. government's official web portal to all federal, state and local government web resources and services.